Weather Roundup
Issued by NWS Springfield, MO

Home | Current Version | Previous Version | Text Only | Print | Product List | Glossary On
Versions: 1 2 3 4 5 6 7 8 9 10 11 12 13 14 15 16 17 18 19 20 21 22 23 24 25 26 27 28 29 30 31 32 33 34 35 36 37 38 39 40 41 42 43 44 45 46 47 48 49 50
000
NZUS99 KSGF 281207
HRRSGF

HOURLY WEATHER
NATIONAL WEATHER SERVICE SPRINGFIELD MO
700 AM CDT TUE APR 28 2015

......SGF CWA......

CITY           SKY/WX    TMP DP  RH WIND       PRES   REMARKS
SPRINGFIELD    MOCLDY    41  36  82 CALM      30.11R
6HR MIN TEMP:  39; 6HR MAX TEMP:  52;

JOPLIN         CLOUDY    45  39  79 NE6       30.13R
6HR MIN TEMP:  43; 6HR MAX TEMP:  51;

WEST PLAINS    CLOUDY    43  36  76 N3        30.09R
6HR MIN TEMP:  41; 6HR MAX TEMP:  50;

ROLLA          CLEAR     41  37  86 N5        30.09R
6HR MIN TEMP:  39; 6HR MAX TEMP:  46;

OSAGE BEACH    CLEAR     39  36  87 N3        30.12R
BRANSON        MOCLDY    46  37  71 CALM      30.10R

......SURROUNDING SGF CWA......

CITY           SKY/WX    TMP DP  RH WIND       PRES   REMARKS
CHANUTE        MOCLDY    46  39  76 N5        30.14R
PARSONS        CLOUDY    49  40  71 NE5       30.14R
COFFEYVILLE    CLOUDY    48  40  73 NE5       30.13R
EMPORIA        PTCLDY    45  38  76 CALM      30.16R
GROVE OK       CLOUDY    52  41  66 CALM      30.11R
ROGERS AR      CLOUDY    48  39  71 NE6       30.09R
SILOAM SPRINGS CLOUDY   N/A N/A N/A NE5       30.09R
HARRISON AR    CLOUDY    46  38  73 CALM      30.08R
NEAR YELLVILLE CLOUDY    46  39  76 N5        30.07R

......KANSAS AND MISSOURI......

CITY           SKY/WX    TMP DP  RH WIND       PRES   REMARKS
KANSAS CTY INT MOCLDY    44  37  76 N6        30.16R
DOWNTOWN KC    MOCLDY    46  41  82 CALM      30.16R
COLUMBIA       CLEAR     46  38  73 NE7       30.13R
SEDALIA        PTCLDY    45  37  73 N3        30.15R
ST JOSEPH      PTCLDY    41  38  89 N7        30.19R
ST LOUIS       PTCLDY    47  39  74 NE7       30.13S
SPIRIT OF STL  CLEAR     40  38  93 CALM      30.13R
KIRKSVILLE     CLEAR     40  37  89 W3        30.16R
WICHITA        MOCLDY    47  38  71 N6        30.16R
TOPEKA         MOCLDY    41  38  89 CALM      30.18R
OLATHE         PTCLDY    48  37  65 NE6       30.15R

......TENNESSEE......

CITY           SKY/WX    TMP DP  RH WIND       PRES   REMARKS
MEMPHIS        CLOUDY    54  41  61 NE12      29.98R
NASHVILLE      MOSUNNY   48  41  76 NE7       30.01R

......ARKANSAS.......

CITY           SKY/WX    TMP DP  RH WIND       PRES   REMARKS
FAYETTEVILLE   CLOUDY    48  43  82 CALM      30.07R
FT SMITH       RAIN      52  48  86 NE5       30.05R FOG
LITTLE ROCK    LGT RAIN  55  43  63 NE6       30.01R

......OKLAHOMA.......

CITY           SKY/WX    TMP DP  RH WIND       PRES   REMARKS
TULSA          CLOUDY    51  48  89 NW10      30.10R
PONCA CITY     CLOUDY    49  48  97 W5        30.14R
MCALESTER      MOCLDY    52  49  89 N8        30.07R
OKLAHOMA CITY  CLOUDY    51  45  79 N9        30.12R

......IOWA............

CITY           SKY/WX    TMP DP  RH WIND       PRES   REMARKS
DES MOINES     PTCLDY    46  36  68 N5        30.17S
QUAD CITIES    CLEAR     43  36  76 CALM      30.14S

......ILLINOIS........

CITY           SKY/WX    TMP DP  RH WIND       PRES   REMARKS
QUINCY         CLEAR     44  36  73 SE3       30.14R
CHICAGO        MOSUNNY   39  34  82 CALM      30.16R



USA.gov is the U.S. government's official web portal to all federal, state and local government web resources and services.